sat.trackr.live / text

‹ back to catalog

ONEWEB-0349

NORAD 49281 · 2021-090C

PAYLOAD ACTIVE UNKNOWN

§ Identity

Operator
Country
UK
Launch date
2021-10-14
Launch site
VOSTO
Launch vehicle
Mass (kg)
RCS (m²)

Purposes: comms

External: N2YO · Heavens-Above · Gunter

§ Orbital elements

Epoch: 2026-09-08T13:27:04.979520Z

Period
109.03 min
Inclination
87.9135°
Eccentricity
0.0001997
Mean motion
13.20771748 rev/d
Perigee alt
1,180.3 km
Apogee alt
1,183.3 km
Semi-major
7,559.9 km
B*
4.8255e-4
RAAN
257.8113°
Arg perigee
91.3457°
Mean anomaly
268.7905°
Rev number
24,083

§ Raw data

ONEWEB-03491 49281U 21090C   26251.56047430  .00000209  00000+0  48255-3 0  99982 49281  87.9135 257.8113 0001997  91.3457 268.7905 13.20771748240835

JSON: /api/v1/satellites/49281 · /tle

For live sub-satellite position, see the globe view (requires WebGL).

§ Visibility from observer

Set your observer location to see the next 7 days of passes ≥ 10°. The values pass through the URL so the page stays shareable.

No JS? Fill the form by hand. The geolocation button needs JavaScript.